Location: Antioch Baptist Church
(32.6696°N, 85.7327°W)
Time: 20:43:15
(UTC+00:00)

Cosmos 1833 - Pass Details

Date: 14 July 2020
Orbit: 837 x 862 km, 70.9° (Epoch: 13 August)

Event Time Altitude Azimuth Distance (km) Brightness Sun altitude
Exits shadow 09:54:10 - 199° (SSW) 2,802 6.4 -10.2°
Reaches altitude 10° 09:55:06 10° 199° (SSW) 2,444 6.1 -10.0°
Maximum altitude 10:00:43 90° 282° (WNW) 841 4.2 -9.1°
Drops below altitude 10° 10:06:21 10° 20° (NNE) 2,453 7.5 -8.1°
Sets 10:08:48 0° 21° (NNE) 3,391 8.3 -7.6°
